Weather History for Rickenbacker, OH

Change the Weather History Date:

Sunday, February 3, 2013

  Actual Average Record
Temperature  
Mean Temperature 25 °F -  
Max Temperature 28 °F 38 °F 55 °F (2003)
Min Temperature 22 °F 23 °F 6 °F (2007)
Degree Days  
Heating Degree Days 40    
Moisture  
Dew Point 17 °F    
Average Humidity 75    
Maximum Humidity 86    
Minimum Humidity 60    
Precipitation  
Precipitation 0.00 in - - ()
Sea Level Pressure  
Sea Level Pressure 29.97 in    
Wind  
Wind Speed 7 mph (WSW)    
Max Wind Speed 18 mph    
Max Gust Speed 25 mph    
Visibility 8 miles    
Events Snow    
Averages and records for this station are not official NWS values.
T = Trace of Precipitation, MM = Missing Value Source: NWS Daily Summary

Daily Weather History Graph

Daily Weather History Graph

Search for Another Location

Airport:

Trip Planner

Search our weather history database for the weather conditions in past years. The results will help you decide how hot, cold, wet, or windy it might be!

Date:

Astronomy

Feb. 03, 2013 Rise Set
Actual Time 7:37 AM EST 5:54 PM EST
Civil Twilight 7:09 AM EST 6:22 PM EST
Nautical Twilight 6:37 AM EST 6:54 PM EST
Astronomical Twilight 6:05 AM EST 7:26 PM EST
Moon 1:03 AM EST (2/3) 11:30 AM EST (2/3)
Length of Visible Light 11h 13m
Length of Day
10h 16m
Waning Gibbous, 49% of the Moon is Illuminated
Feb 3
Waning Gibbous
Feb 10
New
Feb 17
First Quarter
Feb 25
Full
Mar 4
Last Quarter

Hourly Weather History & Observations

Time (EST) Temp. Windchill Dew Point Humidity Pressure Visibility Wind Dir Wind Speed Gust Speed Precip Events Conditions
12:15 AM 28.2 °F 21.0 °F 22.6 °F 80% 29.98 in 10.0 mi West 6.9 mph - N/A Snow Light Snow
12:35 AM 27.9 °F 22.6 °F 22.5 °F 80% 29.98 in 10.0 mi West 4.6 mph - N/A Snow Light Snow
12:55 AM 27.5 °F 23.6 °F 22.8 °F 83% 29.98 in 7.0 mi West 3.5 mph - N/A Snow Light Snow
1:15 AM 27.5 °F 23.6 °F 23.0 °F 83% 29.97 in 7.0 mi WSW 3.5 mph - N/A Snow Light Snow
1:35 AM 27.3 °F 23.4 °F 23.0 °F 84% 29.97 in 5.0 mi West 3.5 mph - N/A Snow Light Snow
1:55 AM 27.3 °F - 23.2 °F 84% 29.96 in 7.0 mi Calm Calm - N/A Snow Light Snow
2:15 AM 27.1 °F - 23.2 °F 85% 29.96 in 7.0 mi Calm Calm - N/A   Overcast
2:35 AM 27.0 °F 23.0 °F 23.0 °F 85% 29.95 in 7.0 mi WSW 3.5 mph - N/A   Overcast
2:55 AM 27.0 °F - 22.6 °F 84% 29.95 in 7.0 mi Calm Calm - N/A   Overcast
3:15 AM 26.8 °F - 22.5 °F 84% 29.94 in 10.0 mi Calm Calm - N/A   Overcast
3:35 AM 26.6 °F 22.6 °F 22.1 °F 83% 29.93 in 10.0 mi WSW 3.5 mph - N/A   Overcast
3:55 AM 25.9 °F 21.7 °F 21.7 °F 84% 29.93 in 10.0 mi WSW 3.5 mph - N/A   Overcast
4:15 AM 26.2 °F - 21.6 °F 82% 29.92 in 7.0 mi Calm Calm - N/A Snow Light Snow
4:35 AM 26.2 °F 22.1 °F 21.6 °F 82% 29.91 in 7.0 mi SW 3.5 mph - N/A   Overcast
4:55 AM 26.1 °F 20.5 °F 21.2 °F 82% 29.91 in 3.0 mi WSW 4.6 mph - N/A Snow Light Snow
5:15 AM 25.2 °F 20.9 °F 20.7 °F 83% 29.90 in 5.0 mi WSW 3.5 mph - N/A Snow Light Snow
5:35 AM 24.6 °F 20.3 °F 20.5 °F 84% 29.90 in 5.0 mi WSW 3.5 mph - N/A Snow Light Snow
5:55 AM 24.6 °F 18.8 °F 20.5 °F 84% 29.90 in 5.0 mi WSW 4.6 mph - N/A   Haze
6:15 AM 24.8 °F 19.1 °F 20.7 °F 84% 29.90 in 7.0 mi West 4.6 mph - N/A   Overcast
6:35 AM 25.3 °F - 20.8 °F 83% 29.89 in 10.0 mi Calm Calm - N/A   Overcast
6:55 AM 25.2 °F - 20.8 °F 84% 29.89 in 7.0 mi Calm Calm - N/A   Overcast
7:15 AM 25.0 °F - 21.0 °F 85% 29.88 in 7.0 mi Calm Calm - N/A   Overcast
7:35 AM 25.0 °F 19.3 °F 21.2 °F 86% 29.89 in 4.0 mi NW 4.6 mph - N/A   Overcast
7:55 AM 25.2 °F 20.9 °F 21.0 °F 84% 29.90 in 5.0 mi NNW 3.5 mph - N/A   Overcast
8:15 AM 24.8 °F 20.5 °F 20.5 °F 84% 29.90 in 7.0 mi NW 3.5 mph - N/A   Overcast
8:35 AM 24.8 °F 20.5 °F 20.1 °F 82% 29.90 in 5.0 mi WNW 3.5 mph - N/A   Haze
8:55 AM 25.0 °F 18.1 °F 20.1 °F 82% 29.91 in 5.0 mi West 5.8 mph - N/A   Haze
9:15 AM 24.3 °F 10.8 °F 16.9 °F 73% 29.92 in 5.0 mi West 17.3 mph 25.3 mph N/A   Haze
9:35 AM 23.0 °F 10.6 °F 13.8 °F 68% 29.91 in 10.0 mi WSW 13.8 mph - N/A   Overcast
9:55 AM 23.0 °F 10.6 °F 12.6 °F 64% 29.91 in 10.0 mi WSW 13.8 mph - N/A   Overcast
10:15 AM 23.0 °F 11.1 °F 12.6 °F 64% 29.92 in 10.0 mi WSW 12.7 mph - N/A   Overcast
10:35 AM 23.2 °F 10.3 °F 13.6 °F 67% 29.92 in 10.0 mi West 15.0 mph - N/A   Overcast
10:55 AM 23.4 °F 11.6 °F 14.5 °F 69% 29.93 in 7.0 mi West 12.7 mph 18.4 mph N/A   Overcast
11:15 AM 23.2 °F 11.4 °F 15.3 °F 72% 29.93 in 7.0 mi WSW 12.7 mph - N/A   Overcast
11:35 AM 23.4 °F 12.2 °F 15.8 °F 73% 29.93 in 3.0 mi West 11.5 mph - N/A Snow Light Snow
11:55 AM 23.7 °F 12.6 °F 16.3 °F 73% 29.93 in 2.5 mi WSW 11.5 mph - N/A Snow Light Snow
12:15 PM 24.3 °F 13.3 °F 16.9 °F 73% 29.92 in 4.0 mi West 11.5 mph - N/A Snow Light Snow
12:35 PM 24.4 °F 13.0 °F 16.5 °F 72% 29.93 in 7.0 mi West 12.7 mph - N/A Snow Light Snow
12:55 PM 23.9 °F 10.8 °F 16.0 °F 72% 29.92 in 5.0 mi West 16.1 mph 19.6 mph N/A Snow Light Snow
1:15 PM 23.7 °F 11.0 °F 16.0 °F 72% 29.93 in 5.0 mi West 15.0 mph - N/A Snow Light Snow
1:35 PM 23.7 °F 12.1 °F 15.6 °F 71% 29.92 in 7.0 mi WSW 12.7 mph - N/A Snow Light Snow
1:55 PM 23.9 °F 11.2 °F 15.3 °F 70% 29.93 in 10.0 mi WSW 15.0 mph - N/A   Overcast
2:15 PM 23.9 °F 12.3 °F 15.1 °F 69% 29.93 in 10.0 mi WSW 12.7 mph - N/A   Overcast
2:35 PM 24.3 °F 12.2 °F 14.4 °F 66% 29.93 in 10.0 mi West 13.8 mph - N/A   Overcast
2:55 PM 24.3 °F 11.7 °F 13.5 °F 63% 29.94 in 10.0 mi WSW 15.0 mph 20.7 mph N/A   Overcast
3:15 PM 23.9 °F 10.3 °F 12.7 °F 62% 29.95 in 10.0 mi West 17.3 mph - N/A   Overcast
3:35 PM 23.5 °F 10.8 °F 11.8 °F 61% 29.97 in 10.0 mi WSW 15.0 mph - N/A   Overcast
3:55 PM 23.4 °F 10.6 °F 11.7 °F 61% 29.98 in 10.0 mi West 15.0 mph 23.0 mph N/A   Overcast
4:15 PM 23.4 °F 9.2 °F 11.1 °F 60% 30.00 in 10.0 mi West 18.4 mph 23.0 mph N/A   Overcast
4:35 PM 23.0 °F 10.1 °F 11.1 °F 60% 30.00 in 10.0 mi West 15.0 mph 20.7 mph N/A   Overcast
4:55 PM 23.0 °F 11.7 °F 11.7 °F 62% 30.01 in 10.0 mi West 11.5 mph - N/A   Overcast
5:15 PM 23.0 °F 11.7 °F 12.2 °F 63% 30.01 in 10.0 mi West 11.5 mph - N/A   Overcast
5:35 PM 23.0 °F 11.1 °F 12.9 °F 65% 30.01 in 10.0 mi West 12.7 mph 18.4 mph N/A   Overcast
5:55 PM 23.0 °F 12.4 °F 13.6 °F 67% 30.02 in 10.0 mi West 10.4 mph - N/A   Overcast
6:15 PM 22.6 °F 11.9 °F 14.5 °F 71% 30.03 in 10.0 mi West 10.4 mph - N/A   Overcast
6:35 PM 22.5 °F 11.1 °F 15.4 °F 74% 30.03 in 10.0 mi West 11.5 mph - N/A   Overcast
6:55 PM 22.5 °F 12.4 °F 15.8 °F 76% 30.04 in 10.0 mi WSW 9.2 mph - N/A   Overcast
7:15 PM 22.5 °F 12.4 °F 15.6 °F 75% 30.05 in 10.0 mi WSW 9.2 mph - N/A   Overcast
7:35 PM 22.6 °F 12.6 °F 15.6 °F 74% 30.06 in 10.0 mi WSW 9.2 mph - N/A   Overcast
7:55 PM 22.8 °F 13.6 °F 15.6 °F 74% 30.06 in 10.0 mi WSW 8.1 mph - N/A   Overcast
8:15 PM 23.0 °F 13.9 °F 15.6 °F 73% 30.06 in 10.0 mi WSW 8.1 mph - N/A   Overcast
8:35 PM 23.0 °F 14.7 °F 15.6 °F 73% 30.07 in 10.0 mi WSW 6.9 mph - N/A   Overcast
8:55 PM 23.0 °F 13.9 °F 15.6 °F 73% 30.07 in 5.0 mi WSW 8.1 mph - N/A Snow Light Snow
9:15 PM 23.0 °F 13.9 °F 15.8 °F 74% 30.07 in 10.0 mi SW 8.1 mph - N/A   Overcast
9:35 PM 23.4 °F 13.5 °F 15.8 °F 73% 30.08 in 10.0 mi WSW 9.2 mph - N/A   Overcast
9:55 PM 23.5 °F 15.4 °F 16.0 °F 73% 30.08 in 7.0 mi SW 6.9 mph - N/A Snow Light Snow
10:15 PM 23.4 °F 15.2 °F 16.9 °F 76% 30.08 in 5.0 mi WSW 6.9 mph - N/A Snow Light Snow
10:35 PM 23.2 °F 14.1 °F 16.7 °F 76% 30.08 in 10.0 mi WSW 8.1 mph - N/A   Overcast
10:55 PM 23.2 °F 12.0 °F 16.3 °F 75% 30.08 in 10.0 mi West 11.5 mph - N/A   Overcast
11:15 PM 23.7 °F 12.1 °F 14.5 °F 68% 30.08 in 10.0 mi West 12.7 mph - N/A   Overcast
11:35 PM 23.4 °F 12.8 °F 13.5 °F 66% 30.08 in 10.0 mi West 10.4 mph - N/A   Overcast
11:55 PM 22.1 °F 13.7 °F 12.4 °F 66% 30.09 in 10.0 mi West 6.9 mph - N/A   Scattered Clouds